Regional Weather Roundup
Issued by NWS Jackson, KY

Home | Current Version | Previous Version | Graphics & Text | Print | Product List | Glossary On
Versions: 1 2 3 4 5 6 7 8 9 10 11 12 13 14 15 16 17 18 19 20 21 22 23 24 25 26 27 28 29 30 31 32 33 34 35 36 37 38 39 40 41 42 43 44 45 46 47 48 49 50
000
ASUS43 KJKL 060910
RWRJKL

EAST KENTUCKY HOURLY WEATHER ROUNDUP
NATIONAL WEATHER SERVICE JACKSON KY
500 AM EDT WED MAY 06 2015

NOTE: "FAIR" INDICATES FEW OR NO CLOUDS BELOW 12,000 FEET WITH
NO SIGNIFICANT WEATHER AND/OR OBSTRUCTIONS TO VISIBILITY.

* THESE REPORTS ARE NOT UNDER NWS QUALITY CONTROL AND MAY NOT
  REPORT WEATHER SUCH AS PRECIPITATION AND FOG.

KYZ079-080-083-085-087-088-110-112-115-119-120-061000
...EASTERN KENTUCKY...

CITY           SKY/WX    TMP DP  RH WIND       PRES   REMARKS
JACKSON        CLEAR     67  52  58 CALM      30.23S
LONDON         CLEAR     56  51  84 CALM      30.22F
SOMERSET*      CLEAR     54  54 100 CALM      30.22F
MONTICELLO*    CLEAR     55  55 100 CALM      30.24S
MIDDLESBORO*   CLOUDY    56  55  95 CALM      30.25S
HARLAN APT*    CLOUDY    55  55 100 CALM      30.25S
HAZARD APT*    SUNNY     57  57 100 CALM      30.23
BLACK MTN*       N/A     59  52  77 SW6         N/A
PIKEVILLE APT* CLEAR     61  55  82 CALM      30.23S
BIG SANDY*     SUNNY     59  56  88 SW3       30.23R
MOREHEAD APT*  LGT RAIN  59  54  82 CALM      30.23F
$$

KYZ035-036-041-042-044-050-067-078-099-061000
...CENTRAL KENTUCKY...

CITY           SKY/WX    TMP DP  RH WIND       PRES   REMARKS
MT STERLING*   CLEAR     57  54  88 CALM      30.23S
FLEMING/MASON* MOCLDY    61  55  82 S5        30.22S
DANVILLE*      CLEAR     54  52  94 CALM      30.22S
RICHMOND*      CLEAR     59  54  82 CALM      30.21S
LEXINGTON      PTCLDY    59  54  83 SE3       30.21S
FRANKFORT      CLEAR     56  53  90 CALM      30.19F
$$

KYZ091>093-OHZ055-061-077-WVZ005-015-034-035-042-061000
...SOUTHERN OHIO/WEST VIRGINIA...

CITY           SKY/WX    TMP DP  RH WIND       PRES   REMARKS
COVINGTON      CLEAR     60  54  80 CALM      30.20S
COLUMBUS       CLEAR     56  54  93 CALM      30.20R
DAYTON         CLEAR     58  56  93 CALM      30.21S FOG
WILMINGTON     CLEAR     60  52  74 SW3       30.20F
HUNTINGTON     MOCLDY    57  55  93 CALM      30.20S
CHARLESTON     CLEAR     56  54  93 CALM      30.21S
PINEVILLE*     FOG       56  56 100 MISG      30.30S VSB 1
BECKLEY        CLEAR     55  49  80 CALM      30.27S
BLUEFIELD      CLOUDY    63  49  60 W6        30.29F
$$

VAZ002-007-008-TNZ017-027-036-066-071-061000
...SOUTHWEST VIRGINIA/EAST TENNESSEE...

CITY           SKY/WX    TMP DP  RH WIND       PRES   REMARKS
WISE*          CLEAR     61  48  63 CALM      30.29F
JONESVILLE*    CLOUDY    57  55  94 CALM      30.26F
ABINGDON*      CLEAR     59  55  87 CALM      30.27S
BRISTOL        PTCLDY    60  55  83 E3        30.25S
KNOXVILLE      PTCLDY    61  56  83 E3        30.22S
OAK RIDGE      PTCLDY    62  58  86 CALM      30.23F
CROSSVILLE     CLOUDY    65  52  62 CALM      30.25F
NASHVILLE      PTCLDY    61  57  87 SE3       30.19S
$$

...KEY TO REMARKS...
VSB - VISIBILITY IN MILES
WCI - WIND CHILL INDEX
HX  - HEAT INDEX

$$


USA.gov is the U.S. government's official web portal to all federal, state and local government web resources and services.